Sussex, NJ

7:36 AM EST on November 13, 2019 (GMT -0500)
Sussex

Weather History for KFWN - September, 2019

Change the Weather History Date:

Monday, September 9, 2019

  Actual Average Record
Temperature  
Mean Temperature 64 °F -  
Max Temperature 77 °F 75 °F 91 °F (2002)
Min Temperature 53 °F 50 °F 37 °F (1986)
Degree Days  
Heating Degree Days 1    
Growing Degree Days 14 (Base 50)    
Moisture  
Dew Point 56 °F    
Average Humidity 73    
Maximum Humidity 90    
Minimum Humidity 54    
Precipitation  
Precipitation 0.00 in - - ()
Sea Level Pressure  
Sea Level Pressure 30.24 in    
Wind  
Wind Speed 4 mph ()    
Max Wind Speed 10 mph    
Max Gust Speed -    
Visibility 10.0 miles    
Events      
Averages and records for this station are not official NWS values.
T = Trace of Precipitation, MM = Missing Value Source: Averaged Metar Reports

Daily Weather History Graph

Daily Weather History Graph

Search for Another Location

Airport or City:

Astronomy

Sep. 09, 2019 Rise Set
Actual Time 6:32 AM EDT 7:18 PM EDT
Civil Twilight 6:04 AM EDT 7:46 PM EDT
Nautical Twilight 5:31 AM EDT 8:19 PM EDT
Astronomical Twilight 4:57 AM EDT 8:53 PM EDT
Moon 5:14 PM EDT (9/9) 1:58 AM EDT (9/9)
Length of Visible Light 13h 41m
Length of Day
12h 45m
Waxing Gibbous, 83% of the Moon is Illuminated
Sep 9
Waxing Gibbous
Sep 14
Full
Sep 21
Last Quarter
Sep 28
New
Oct 5
First Quarter

Hourly Weather History & Observations

Time (EDT) Temp. Dew Point Humidity Pressure Visibility Wind Dir Wind Speed Gust Speed Precip Events Conditions
12:53 AM 64.0 °F 53.1 °F 67% 30.17 in 10.0 mi North 4.6 mph - N/A   Clear
1:53 AM 63.0 °F 53.1 °F 70% 30.18 in 10.0 mi North 5.8 mph - N/A   Mostly Cloudy
2:53 AM 62.1 °F 52.0 °F 70% 30.18 in 10.0 mi NNE 4.6 mph - N/A   Mostly Cloudy
3:53 AM 61.0 °F 51.1 °F 70% 30.19 in 10.0 mi North 3.5 mph - N/A   Mostly Cloudy
4:53 AM 57.9 °F 51.1 °F 78% 30.20 in 10.0 mi NNE 3.5 mph - N/A   Clear
5:53 AM 57.0 °F 51.1 °F 81% 30.22 in 10.0 mi NNE 4.6 mph - N/A   Partly Cloudy
6:53 AM 53.1 °F 50.0 °F 89% 30.24 in 10.0 mi NE 3.5 mph - N/A   Scattered Clouds
7:53 AM 61.0 °F 52.0 °F 72% 30.25 in 10.0 mi NNE 6.9 mph - N/A   Clear
8:53 AM 60.1 °F 52.0 °F 75% 30.26 in 10.0 mi NNE 10.4 mph - N/A   Mostly Cloudy
9:53 AM 62.1 °F 52.0 °F 70% 30.27 in 10.0 mi NE 6.9 mph - N/A   Mostly Cloudy
10:53 AM 64.9 °F 53.1 °F 65% 30.28 in 10.0 mi North 6.9 mph - N/A   Overcast
11:53 AM 68.0 °F 54.0 °F 61% 30.27 in 10.0 mi NNE 8.1 mph - N/A   Mostly Cloudy
12:53 PM 71.1 °F 55.9 °F 59% 30.26 in 10.0 mi North 8.1 mph - N/A   Clear
1:53 PM 73.0 °F 57.9 °F 59% 30.24 in 10.0 mi Variable 4.6 mph - N/A   Mostly Cloudy
2:53 PM 75.9 °F 59.0 °F 56% 30.22 in 10.0 mi Variable 4.6 mph - N/A   Overcast
3:53 PM 73.9 °F 57.9 °F 57% 30.23 in 10.0 mi NE 3.5 mph - N/A   Overcast
4:53 PM 75.9 °F 57.9 °F 54% 30.23 in 10.0 mi Calm Calm - N/A   Partly Cloudy
5:53 PM 75.0 °F 59.0 °F 57% 30.23 in 10.0 mi East 3.5 mph - N/A   Clear
6:53 PM 69.1 °F 60.1 °F 73% 30.24 in 10.0 mi Calm Calm - N/A   Partly Cloudy
7:53 PM 64.9 °F 60.1 °F 84% 30.24 in 10.0 mi Calm Calm - N/A   Scattered Clouds
8:53 PM 64.9 °F 60.1 °F 84% 30.27 in 10.0 mi Calm Calm - N/A   Mostly Cloudy
9:53 PM 64.0 °F 60.1 °F 87% 30.28 in 10.0 mi Calm Calm - N/A   Mostly Cloudy
10:24 PM 63.0 °F 59.0 °F 87% 30.29 in 10.0 mi Calm Calm - N/A   Mostly Cloudy
10:53 PM 64.0 °F 60.1 °F 87% 30.29 in 10.0 mi Calm Calm - N/A   Overcast
11:35 PM 63.0 °F 60.1 °F 90% 30.29 in 10.0 mi Calm Calm - N/A   Mostly Cloudy
11:53 PM 63.0 °F 60.1 °F 90% 30.29 in 10.0 mi Calm Calm - N/A   Mostly Cloudy